BREEZE M DEB (TANK) - Orbit

View from above orbital plane
View from above orbital plane
View from above satellite
View from above satellite

Ground track
Ground track

The orbit data is extracted from the following two-line orbital elements,

1 33437U 08057B   13168.70689870  .00003688  00000-0  81606-3 0  8622
2 33437 049.5651 046.9593 5044061 101.2896 341.6679 05.52494560 92440
Epoch (UTC): 17 June 2013 16:57:56
Eccentricity: 0.5044061
inclination: 49.5651°
perigee height: 320 km
apogee height: 13955 km
right ascension of ascending node: 46.9593°
argument of perigee: 101.2896°
revolutions per day: 5.52494560
mean anomaly at epoch: 341.6679°
orbit number at epoch: 9244

The dashed part of the orbit path shows where the satellite is in the earth's shadow,  

Developed and maintained by Chris Peat, Heavens-Above GmbH. Please read the updated FAQ before sending e-mail. Imprint. DLR